STARLINK-1533 (46069 NORAD) Tracking and Keplerian Element Data

This shows tracking and keplerian element data for the satellite.

Feedback or suggestion? Click here.




ElementValue
Catalog46069
NameSTARLINK-1533
Epoch Orbit1845
Epoch Day330.86782965
Epoch Year2020
RAAN119.8611
Inclination53.0123
Eccentricity0.0001204
Argument of Perigee115.5138
Mean Anonmoly244.5975
Mean Motion15.05581407
Decay Rate6.78E-06
L11 46069U 20055AU 20330.86782965 .00000678 00000-0 65696-4 0 9993
L22 46069 53.0123 119.8611 0001204 115.5138 244.5975 15.05581407 18459

Live tracking and technical data element details for STARLINK-1533 (NORAD 46069). STARLINK-1533 can be tracked NOW for your location showing map with azimuth and elevation plus other details from your city location.

Track the satellite on the map from your city or location and see movement details for azimuth, elevation, latitude, longitude, range, height, and movement on the map or in text.







IsCatalogInMostPopularTable: catalog: 46069, numindb: 30
Update: records affected: 1



GetName: 46069 STARLINK-1533

Hit Count: updated at: Thu, 26 Nov 2020 23:22:49 GMT